TINTIN B (43217 NORAD) Tracking and Keplerian Element Data

This shows tracking and keplerian element data for the satellite.

Feedback or suggestion? Click here.




ElementValue
Catalog43217
NameTINTIN B
Epoch Orbit4008
Epoch Day317.57080001
Epoch Year2018
RAAN323.386
Inclination97.4615
Eccentricity0.0014878
Argument of Perigee78.7361
Mean Anonmoly281.5545
Mean Motion15.19956351
Decay Rate1.078E-05
L11 43217U 18020C 18317.57080001 .00001078 00000-0 53203-4 0 9992
L22 43217 97.4615 323.3860 0014878 78.7361 281.5545 15.19956351 40083

Live tracking and technical data element details for TINTIN B (NORAD 43217). TINTIN B can be tracked NOW for your location showing map with azimuth and elevation plus other details from your city location.

Track the satellite on the map from your city or location and see movement details for azimuth, elevation, latitude, longitude, range, height, and movement on the map or in text.







IsCatalogInMostPopularTable: catalog: 43217, numindb: 173
Update: records affected: 1



GetName: 43217 TINTIN B

Hit Count: updated at: Wed, 14 Nov 2018 15:02:53 GMT